SCP
0 0 0 0 0 0 0 0 0 0 0 0 0 0 0 0 0 0 0 0 0 -0 -0 -0 -0 -0 0 0 0 0 0 0 0 0 0 0 0 0 0 0 0 0 0
0 0 0 0 0 0 0 0 0 0 0 0 0 0 0 0 0 0 0 0 0 0 -0 -0 0 0 0 0 0 0 0 0 0 0 0 0 0 0 0 0 0 0 0
0 0 0 0 0 0 0 0 0 0 0 0 0 0 0 0 0 0 0 0 0 0 0 0 0 0 0 0 0 0 0 0 0 0 0 0 0 0 0 0 0 0 0
0 0 0 0 0 0 0 0 0 0 0 0 0 0 0 0 0 0 0 0 0 0 0 0 0 0 0 0 0 0 0 0 0 0 0 0 0 0 0 0 0 0 0
0 0 0 0 0 0 0 0 0 0 0 0 0 0 0 0 0 0 0 0 0 0 0 0 0 0 0 0 0 0 0 0 0 0 0 0 0 0 0 0 0 0 0
0 0 0 0 0 0 0 0 0 0 0 0 0 0 0 0 0 0 0 0 0 0 0 0 0 0 0 0 0 0 0 0 0 0 0 0 0 0 0 0 0 0 0
0 0 0 0 0 0 0 0 0 0 0 0 0 0 0 0 0 0 0 0 0 0 0 0 0 0 0 0 0 0 0 0 0 0 0 0 0 0 0 0 0 0 0
0 0 0 0 0 0 0 0 0 0 0 0 0 0 0 0 0 0 0 0 0 0 0 0 0 0 0 0 0 0 0 0 0 0 0 0 0 0 0 0 0 0 0
0 0 0 0 0 0 0 0 0 0 0 0 0 0 0 0 0 0 0 0 0 0 0 0 0 0 0 0 0 0 0 0 0 0 0 0 0 0 0 0 0 0 0
0 0 0 0 0 0 0 0 0 0 1 1 1 1 0 0 0 0 0 0 0 0 0 0 0 0 0 0 0 0 0 0 0 0 0 0 0 0 0 0 0 0 0
0 0 0 0 0 0 0 0 1 1 1 1 1 1 1 1 0 0 0 1 0 0 0 0 0 0 0 0 0 0 0 0 0 0 0 0 1 0 0 0 0 0 0
1 0 0 0 1 0 1 1 1 1 1 1 1 1 1 1 1 1 1 1 1 0 0 0 0 0 0 0 0 0 0 0 0 0 0 1 1 0 0 0 0 0 0
1 1 1 1 1 1 1 1 1 1 1 1 1 1 1 1 1 1 1 1 1 1 1 1 1 0 0 0 0 0 0 0 0 0 1 1 1 0 0 0 0 0 0
1 1 1 1 1 1 1 1 1 1 1 1 2 2 2 2 1 1 1 1 1 1 1 1 1 1 1 0 0 0 0 0 0 0 1 1 1 0 0 0 0 0 0
1 1 1 2 2 2 2 2 1 1 2 2 2 2 2 2 2 2 2 1 1 1 1 1 1 1 1 1 0 0 0 0 0 0 1 1 1 0 0 0 0 0 0
1 1 2 2 2 2 2 2 2 2 2 2 2 2 2 2 2 2 2 2 1 1 1 1 1 1 1 1 0 0 0 0 0 0 0 0 1 0 0 0 0 0 0
1 1 2 2 2 2 2 2 2 2 2 2 2 2 2 2 2 2 2 2 1 1 1 1 1 1 1 1 0 0 0 0 0 0 0 0 0 0 0 0 0 0 0
2 2 2 2 2 2 2 2 1 1 1 1 2 2 1 1 2 2 2 1 1 1 1 1 1 1 1 0 0 0 0 0 0 0 0 0 0 0 0 0 0 0 0
2 2 2 2 2 2 1 1 1 1 1 1 1 1 1 1 1 1 1 1 1 1 1 1 1 1 0 0 0 0 0 0 0 0 0 0 0 0 0 0 0 0 0
2 2 2 2 2 1 1 1 1 1 1 1 1 1 1 1 1 1 1 1 1 1 1 1 0 0 0 0 0 0 0 0 0 0 0 0 0 0 0 0 0 0 0
1 1 1 1 1 1 1 1 1 1 1 1 1 1 1 1 1 1 1 1 1 1 1 1 0 0 0 0 0 0 0 0 0 0 0 0 0 0 0 0 0 0 0
1 1 1 1 1 1 1 1 0 0 0 0 0 0 0 0 0 1 1 1 1 1 1 1 0 0 0 0 0 0 0 0 0 0 0 0 0 0 0 0 0 0 0
0 0 0 0 0 0 0 0 0 0 0 0 0 0 0 0 0 0 0 0 0 0 0 0 0 0 0 0 0 0 0 0 0 0 0 0 0 0 0 0 0 0 0
0 0 0 0 0 0 0 0 0 0 0 0 0 0 0 0 0 0 0 0 0 0 0 0 0 0 0 0 0 0 0 0 0 0 0 0 0 0 0 0 0 0 0
0 0 0 0 0 -0 -0 0 0 0 0 0 0 0 0 0 0 0 0 0 0 0 0 0 0 0 0 0 0 0 0 0 0 0 0 0 0 0 0 0 0 0 0
0 0 0 0 0 0 0 0 0 0 0 0 0 0 0 0 0 0 0 0 0 1 1 1 1 1 1 0 0 0 0 0 0 0 0 0 0 0 0 0 0 0 0
Wind_Speed
14 18 21 17 16 14 14 14 14 14 14 14 14 14 13 12 12 11 10 9 8 7 7 7 7 8 8 9 10 10 11 11 11 11 11 11 11 11 11 10 10 12 13
17 20 21 17 16 15 14 14 13 13 13 13 13 13 13 12 11 11 10 9 8 7 7 7 7 8 9 9 10 10 10 10 10 10 11 11 10 10 9 6 3 11 11
18 20 20 17 16 15 14 14 13 13 13 13 13 13 12 11 11 10 10 9 8 7 7 7 7 7 8 9 9 9 9 9 9 9 9 9 11 9 8 7 10 12 11
19 19 18 19 17 16 14 14 13 13 13 13 13 12 12 11 10 10 9 9 8 7 7 7 7 7 7 8 8 8 8 8 8 8 7 7 9 10 8 8 9 10 10
17 17 18 19 17 16 15 14 14 13 13 13 12 12 11 11 10 9 9 8 7 7 7 7 7 7 7 7 7 7 7 7 7 10 5 5 7 10 8 8 9 9 10
17 17 19 19 17 16 15 15 14 13 13 12 12 11 11 10 9 9 9 8 7 7 7 7 7 7 7 7 7 7 7 7 9 7 5 5 7 10 8 9 9 9 9
17 16 19 18 17 16 15 14 14 13 12 12 11 10 10 9 9 9 8 8 8 7 7 7 7 7 7 8 8 8 8 8 9 5 6 5 6 9 8 9 9 9 9
15 15 18 17 16 15 15 14 13 13 12 11 11 10 9 9 8 8 8 8 8 7 7 7 7 8 8 8 9 9 9 10 10 7 7 6 8 8 9 10 10 11 11
14 13 15 16 15 15 14 13 13 12 11 11 10 10 10 9 9 9 8 8 9 9 8 9 9 9 10 10 10 10 11 11 11 7 8 7 11 10 11 11 11 12 12
12 12 13 13 13 13 14 14 12 12 11 11 11 10 10 10 10 10 10 11 11 10 10 11 11 11 11 11 12 12 12 11 13 11 8 7 13 12 12 13 13 13 14
11 10 11 12 11 11 11 12 13 12 12 11 12 12 11 11 11 11 13 10 11 11 12 12 12 13 12 13 14 14 13 10 13 10 8 9 14 13 13 14 14 14 15
13 12 10 10 10 10 7 8 8 9 9 10 8 10 9 8 7 8 6 9 11 13 13 14 14 13 13 10 13 15 10 13 11 9 7 12 13 14 15 14 14 15 15
12 12 11 9 8 8 6 5 5 5 5 8 9 8 8 7 6 7 5 8 10 13 11 11 12 11 10 9 7 9 11 10 7 8 7 15 14 15 16 15 15 15 16
11 11 10 10 8 7 6 5 5 5 5 6 7 9 8 6 6 6 5 6 6 6 7 7 7 10 10 11 11 11 10 8 7 6 5 13 14 15 16 16 16 16 16
10 10 10 9 9 7 6 5 5 6 6 7 6 8 9 7 7 7 6 6 7 6 7 7 8 9 9 10 10 11 11 11 10 9 6 12 14 15 16 16 17 17 16
10 10 10 9 8 6 5 5 6 6 5 7 7 9 9 8 7 7 7 7 7 7 6 7 9 8 8 8 10 11 11 11 11 11 9 9 14 15 15 16 16 17 17
6 6 7 7 6 6 5 6 5 6 6 6 6 8 9 9 8 7 7 7 6 6 7 7 9 7 8 9 10 11 10 10 10 10 10 8 9 14 16 15 15 16 17
3 4 4 3 3 4 3 4 5 5 5 6 6 7 9 9 9 7 6 7 6 6 6 6 7 7 7 7 7 8 8 7 10 10 10 9 8 8 13 16 14 14 16
5 4 3 2 1 1 2 3 5 5 5 6 6 7 8 9 9 8 6 6 6 5 6 7 5 6 6 7 7 7 8 8 8 9 10 10 9 8 8 11 14 14 15
6 5 4 2 2 2 2 3 4 5 5 5 6 7 9 7 7 6 6 8 7 6 5 5 6 5 6 6 7 7 7 7 7 8 9 9 8 10 10 9 9 12 16
7 6 4 3 3 2 2 3 3 4 5 5 5 7 8 7 7 7 6 6 6 6 6 7 7 7 7 5 6 7 7 7 7 6 7 7 8 8 8 8 8 7 8
6 4 3 1 2 2 2 3 3 5 4 3 4 4 4 5 5 6 5 5 6 5 6 7 7 6 6 5 6 5 5 6 6 6 5 6 6 6 7 8 7 7 8
5 4 3 3 2 3 3 3 2 3 3 3 3 3 3 3 3 5 6 6 6 6 6 7 7 8 7 6 6 5 5 4 3 5 5 4 4 4 5 5 7 7 8
4 3 2 2 2 2 3 3 4 4 4 4 4 4 4 3 3 4 5 6 6 6 6 7 8 7 7 6 5 5 5 4 4 3 6 5 5 5 5 5 6 6 7
2 1 1 1 2 2 3 3 4 4 3 3 3 3 3 3 2 3 4 4 5 6 7 7 6 8 7 7 6 5 6 5 6 5 3 4 4 4 4 5 5 5 5
2 2 3 3 3 4 4 4 4 4 4 4 4 3 3 2 1 2 3 3 4 4 5 6 7 9 8 8 6 6 6 6 6 6 5 5 4 3 3 3 4 3 3
Wind_Direction
158 148 149 161 161 160 156 153 152 153 154 155 155 154 153 151 150 150 149 148 144 138 131 124 119 118 118 116 116 116 117 118 120 120 120 119 118 118 120 131 147 116 114
151 145 150 160 161 161 157 153 151 152 154 155 155 155 154 153 154 153 153 153 151 146 138 131 125 122 120 120 120 122 124 126 128 128 130 128 124 122 126 133 77 110 126
148 144 153 159 162 162 158 154 154 154 155 155 156 157 156 157 158 158 158 159 159 154 144 138 133 129 126 126 127 129 132 136 137 142 170 151 129 129 130 120 105 123 131
147 148 156 156 162 162 160 157 157 158 158 158 158 160 161 162 163 164 164 165 166 161 153 150 145 142 138 136 138 140 143 147 149 175 188 136 137 132 142 137 134 139 139
148 151 148 158 164 164 163 162 162 163 162 162 162 164 165 167 168 170 170 172 173 168 163 161 158 154 152 151 151 153 156 160 169 216 147 144 133 137 155 154 153 153 150
153 154 148 163 165 166 167 167 167 167 166 167 168 169 171 173 175 178 179 181 183 180 177 175 173 169 167 166 167 170 172 175 202 198 158 173 144 146 166 169 169 167 165
157 154 150 164 166 168 170 171 172 172 173 173 174 176 178 181 185 188 189 191 194 194 192 189 187 184 183 183 184 186 190 197 231 192 183 187 136 145 179 182 184 181 178
158 156 148 163 168 170 173 175 177 177 178 180 181 184 188 192 196 200 201 202 204 205 206 205 202 200 199 198 198 199 203 219 224 214 206 198 140 163 196 199 196 193 192
162 158 155 165 171 174 178 180 182 183 185 187 191 194 198 202 207 211 213 214 216 217 217 218 218 215 212 210 208 208 211 224 249 226 216 207 152 182 206 209 208 202 200
165 165 164 169 173 179 181 184 190 191 193 196 201 204 208 212 216 219 222 214 222 226 226 226 226 224 222 218 217 216 217 221 237 234 221 187 156 190 210 214 213 209 206
171 173 175 171 177 187 191 176 191 197 201 206 207 210 216 223 218 209 222 208 221 231 234 234 233 232 229 224 222 221 220 230 229 236 225 162 167 196 213 217 216 213 209
175 179 183 178 181 190 197 178 204 206 199 216 220 212 218 227 239 242 197 209 230 237 240 237 238 237 234 230 216 215 225 228 241 229 215 160 181 206 217 221 220 216 212
177 182 183 182 189 195 198 197 210 220 211 221 227 226 233 236 231 237 228 209 222 232 237 230 229 234 232 230 231 216 227 229 230 238 211 169 192 212 221 223 223 220 216
180 184 184 184 188 201 210 213 221 227 225 231 222 227 227 230 238 238 237 243 235 232 238 244 239 239 241 238 234 236 233 231 234 237 221 177 197 214 223 225 223 222 220
179 185 185 189 190 194 204 228 236 242 241 236 242 233 238 237 237 238 242 244 249 244 236 239 246 247 245 243 241 237 238 237 239 237 224 189 201 215 224 226 224 223 220
182 185 182 188 188 192 209 221 245 252 252 263 250 244 240 243 242 241 240 241 247 249 253 252 249 248 249 248 246 243 241 242 238 236 240 212 204 213 221 225 225 222 219
174 175 184 187 193 198 217 234 247 258 261 259 264 259 250 247 248 246 249 246 247 249 247 247 254 251 247 245 245 246 242 241 242 238 241 242 223 210 213 220 223 220 219
126 146 175 188 191 215 239 260 271 273 274 268 265 261 254 250 247 243 243 246 247 248 246 244 245 246 248 251 252 252 249 241 242 240 238 233 236 232 208 209 219 222 221
84 98 114 110 167 264 279 280 275 270 269 269 265 262 257 252 249 245 241 244 238 237 243 251 241 250 253 255 253 242 245 243 242 243 244 242 235 237 240 200 206 220 224
73 75 73 72 32 333 296 276 272 275 271 265 263 264 265 254 251 251 241 235 233 232 235 239 248 244 260 259 262 258 250 248 242 240 242 237 231 230 232 235 215 213 215
73 67 57 45 29 346 312 296 294 292 285 279 269 271 271 262 251 245 244 235 232 234 238 233 233 232 239 243 252 249 236 233 238 239 235 239 227 228 232 231 237 236 211
76 72 68 49 20 337 334 305 294 299 297 295 287 275 282 278 270 254 250 247 236 239 240 238 230 244 236 223 247 256 236 202 210 219 219 224 232 225 226 225 231 232 248
59 53 45 28 6 352 335 310 304 284 283 299 310 303 304 302 287 275 259 252 243 242 236 235 228 230 237 223 231 253 260 239 182 183 208 217 219 233 234 228 229 228 235
64 62 53 29 4 347 321 339 334 331 330 335 326 330 327 328 302 272 263 253 247 247 248 239 227 228 235 231 209 233 270 318 273 194 187 190 202 226 245 254 248 233 233
47 20 9 347 335 329 326 327 317 331 332 333 329 336 327 337 323 297 280 264 252 251 247 248 235 234 230 237 231 214 212 219 247 264 214 191 204 210 219 241 249 250 242
294 297 304 301 297 298 299 307 306 314 314 321 318 322 316 320 323 329 304 293 276 269 257 247 241 232 240 242 246 236 225 222 219 230 236 226 227 217 227 246 246 238 240